Theta_e
353 351 348 346 345 345 344 344 344 346 344 344 343 342 340 340 341 340 342 354 350 350 352 353 355 357 357 357 356 356 355 355 356 354 353 352 352 352 353 353 353 352 351
358 353 354 350 349 347 346 344 343 344 344 345 344 343 342 344 346 350 345 347 351 351 353 354 356 358 359 359 358 358 357 355 356 355 354 353 352 352 353 353 353 353 352
363 359 355 352 351 353 351 349 347 347 343 344 347 343 344 347 348 352 354 351 351 350 352 354 356 358 357 357 359 358 356 356 355 354 353 352 352 351 352 353 353 353 352
362 364 355 353 353 354 349 346 344 341 340 340 345 343 346 349 349 352 352 353 352 352 352 355 352 349 350 351 357 357 356 356 354 353 352 352 352 351 351 352 352 352 351
357 359 355 353 357 352 349 347 346 348 342 343 343 346 349 347 350 345 351 352 354 353 352 351 345 345 346 342 342 348 351 351 349 350 350 350 349 350 350 351 351 351 351
358 360 355 357 356 353 351 355 353 353 350 347 343 342 349 346 348 348 346 347 347 347 349 353 351 345 340 338 338 340 341 346 350 350 348 347 348 349 349 350 350 351 350
360 360 354 359 358 356 356 357 354 351 350 351 342 345 347 348 346 345 345 345 345 343 343 347 348 345 341 337 336 337 341 337 345 348 348 345 344 346 347 347 348 348 348
355 357 359 359 358 356 357 355 355 347 347 352 345 339 334 338 341 341 340 340 339 339 338 340 339 337 335 338 337 337 339 336 343 347 345 344 343 343 344 344 345 345 346
355 355 353 352 352 351 346 351 349 348 342 344 348 340 329 328 333 335 338 334 335 334 336 337 339 335 335 336 336 337 337 337 338 338 341 344 343 343 342 341 341 342 344
351 350 349 348 348 348 350 348 346 344 344 339 346 348 344 340 329 325 333 336 337 339 338 336 334 335 334 334 335 336 335 334 340 339 340 342 341 342 342 342 341 340 340
345 343 344 343 342 342 343 341 342 341 338 339 342 342 342 341 338 330 325 327 333 334 336 337 336 334 335 333 332 333 335 334 335 336 338 337 338 339 340 340 340 340 340
339 339 337 338 337 336 336 335 338 339 338 336 337 335 334 332 334 334 331 333 330 331 336 335 338 334 336 335 339 335 333 331 329 329 330 331 332 333 334 336 337 339 341
332 331 332 331 329 329 329 329 331 331 332 329 332 329 330 330 332 329 326 325 324 328 329 334 334 337 337 341 340 331 332 328 326 324 325 326 328 329 329 330 331 332 334
327 329 326 326 323 322 323 323 322 323 325 323 324 327 323 323 325 325 323 319 315 316 321 326 330 334 336 337 336 328 329 326 324 321 320 318 318 320 321 323 326 327 328
324 324 323 323 323 323 323 324 321 322 322 323 324 326 323 320 319 319 318 317 313 308 309 316 316 324 324 325 324 328 325 324 321 318 316 315 315 318 319 319 320 322 324
323 322 321 322 322 322 322 323 322 323 321 319 319 321 320 319 319 318 317 316 315 313 310 313 315 321 324 321 321 323 323 321 318 317 317 317 316 316 316 316 318 320 322
320 319 319 319 319 319 321 321 321 320 318 319 320 319 319 322 317 317 318 317 315 315 312 314 317 322 324 323 323 324 323 322 320 317 318 316 314 313 312 313 314 316 318
319 319 318 318 318 318 320 319 318 318 318 318 318 318 318 318 320 322 318 322 318 319 315 312 316 317 321 323 323 320 321 318 319 317 315 314 312 311 311 311 310 311 311
318 318 318 318 318 318 319 319 318 318 318 318 318 317 317 318 317 318 317 315 315 315 315 312 311 315 315 319 317 317 315 315 315 318 314 313 312 312 311 311 310 310 310
317 318 319 318 318 318 318 316 316 316 317 317 318 317 317 316 316 317 316 316 314 313 314 311 310 310 312 314 314 310 309 311 310 312 313 312 312 313 312 310 311 312 310
318 318 318 318 317 316 309 309 312 313 315 315 316 317 318 318 317 315 314 314 313 311 310 309 307 307 307 308 308 310 307 308 308 308 308 308 310 311 312 312 313 314 311
317 316 315 315 315 312 299 299 301 309 314 313 313 315 317 316 315 312 310 310 310 308 308 307 307 306 306 307 308 307 306 304 301 308 306 306 310 307 308 312 310 308 307
316 315 315 314 311 309 297 297 297 308 315 315 316 316 315 316 311 312 311 310 311 308 308 311 308 308 308 309 309 307 307 305 303 306 306 303 307 305 308 309 308 306 305
315 315 313 312 311 305 297 295 296 314 314 315 316 317 316 315 310 306 310 313 313 315 318 314 312 312 313 314 312 310 306 305 306 306 307 300 305 304 306 309 307 306 305
314 314 313 311 310 308 296 295 298 312 309 312 315 313 313 314 300 298 310 308 311 314 312 308 306 303 303 302 306 305 305 301 301 302 306 303 303 303 306 308 311 308 305
313 311 311 310 304 305 296 295 296 305 306 309 319 309 302 304 297 296 309 309 307 308 312 314 316 316 311 311 309 315 308 301 300 299 306 303 304 306 303 308 310 311 314
Wind_Speed
6 7 7 7 6 7 8 8 9 8 9 11 12 13 13 14 14 9 8 9 11 13 14 16 17 17 16 16 15 17 17 18 17 17 16 17 16 18 16 16 15 15 17
4 7 7 8 7 7 7 6 7 7 8 10 12 12 13 12 13 12 10 10 14 15 15 17 18 18 17 15 15 16 16 16 16 16 15 15 16 17 17 15 15 15 16
7 6 7 7 7 6 7 7 7 7 9 9 12 12 11 12 13 11 10 11 11 14 17 19 19 15 15 16 12 13 14 14 13 15 15 14 15 15 16 16 16 15 16
6 6 8 7 6 5 7 6 7 7 9 11 9 10 11 10 11 12 12 10 10 13 8 8 3 8 8 9 10 11 10 10 12 14 12 13 13 15 16 15 14 13 14
10 8 6 7 3 6 7 7 8 7 9 10 11 11 10 10 11 12 13 12 8 10 9 5 9 10 6 6 10 12 10 11 12 12 12 11 12 13 13 12 12 13 13
7 3 7 7 6 8 7 7 7 8 9 9 9 11 10 11 11 11 9 4 12 13 13 14 9 5 2 4 3 11 18 15 12 12 12 11 10 12 11 12 12 13 14
4 7 8 3 5 7 8 8 8 10 9 11 9 10 12 12 12 5 6 10 12 13 14 12 8 2 3 5 5 7 17 19 21 14 13 12 10 12 12 11 12 13 14
3 3 6 5 6 6 8 7 8 9 8 7 7 6 7 9 12 6 5 6 12 11 11 12 9 5 4 3 5 8 13 16 26 16 14 12 12 13 11 11 12 12 14
2 2 4 4 6 5 7 7 8 10 8 10 10 6 3 4 9 8 6 4 8 7 8 9 11 9 5 4 4 9 13 13 23 19 28 12 13 14 13 14 14 13 14
1 3 4 4 5 6 6 7 6 8 10 10 5 5 9 8 5 9 8 6 9 10 8 8 8 10 7 6 13 15 13 16 21 27 25 10 14 16 17 16 15 16 15
6 6 6 5 4 5 6 7 7 7 5 8 8 7 8 8 9 8 11 8 7 8 5 8 7 9 11 10 8 11 22 24 25 27 19 16 15 17 17 17 17 18 16
7 8 8 5 5 6 6 6 6 7 6 8 7 8 6 6 8 9 8 11 12 12 9 9 7 6 11 11 13 16 13 6 6 9 9 10 13 16 18 19 17 20 20
6 6 5 5 5 5 6 7 8 6 6 7 7 8 9 8 3 7 10 12 12 11 10 10 11 10 6 10 6 4 10 9 11 11 10 10 12 15 17 17 19 21 21
6 5 5 5 5 6 6 6 7 7 8 8 9 8 9 8 8 7 8 10 13 12 8 10 7 7 9 5 5 7 9 7 4 4 7 13 17 19 21 21 20 20 19
6 5 4 4 5 6 6 8 7 7 6 8 8 8 8 9 9 9 10 11 12 14 12 12 11 10 11 10 10 8 10 11 9 11 15 19 20 18 18 21 23 24 20
5 4 4 5 5 6 7 8 8 8 9 7 8 9 10 9 9 9 10 10 10 11 15 11 11 11 11 11 15 15 13 13 17 18 16 15 16 15 16 18 20 22 24
4 5 6 6 6 7 8 8 9 10 10 10 10 10 11 10 9 9 10 10 10 10 13 12 12 12 13 15 14 14 14 14 14 17 12 10 11 13 17 18 19 19 18
5 6 6 7 8 8 8 9 9 9 10 11 11 11 12 9 11 11 10 11 12 11 11 14 12 12 14 15 15 14 12 13 14 20 19 13 14 20 22 17 19 20 20
6 7 7 8 8 9 8 8 11 12 12 12 11 13 12 11 10 9 10 11 12 11 11 11 13 12 13 13 14 13 13 13 10 17 17 26 26 25 21 19 17 16 17
6 7 7 7 8 9 11 12 12 13 13 12 9 9 9 11 9 10 11 11 10 10 11 11 11 11 11 13 13 13 11 8 8 8 15 15 22 26 17 19 17 17 16
6 6 7 9 13 8 10 13 13 14 14 12 10 12 9 14 14 12 9 11 12 11 10 11 11 11 12 12 13 12 12 11 10 10 11 11 11 10 9 9 13 16 14
8 9 9 8 8 7 12 17 14 12 11 8 8 9 9 12 12 13 15 14 15 13 12 10 11 11 15 13 13 11 11 10 9 7 9 8 7 8 8 11 16 6 8
7 7 8 8 6 7 15 18 20 11 7 7 6 7 7 7 9 15 17 16 12 11 15 11 12 13 15 15 14 14 12 9 10 9 7 9 5 9 10 11 15 14 11
4 4 5 5 6 7 14 17 23 8 7 8 8 7 7 8 13 14 15 14 14 12 8 8 10 14 14 12 13 10 10 8 8 8 5 6 7 9 10 10 16 19 18
6 5 6 6 8 7 9 14 17 9 10 9 6 8 8 10 13 13 13 15 16 14 13 13 14 13 17 17 14 4 6 4 4 4 2 4 4 8 10 11 8 12 17
5 6 7 6 7 9 9 14 15 8 10 8 6 7 15 14 12 13 12 14 16 16 17 16 16 16 15 17 10 8 5 5 3 3 2 3 6 4 5 4 7 10 11
Wind_Direction
206 223 247 260 239 221 234 230 250 264 251 246 255 253 257 268 270 269 276 188 189 206 221 240 244 238 234 234 243 248 248 248 247 245 246 248 249 254 252 249 248 241 241
218 238 227 237 253 253 265 266 260 271 259 256 266 252 259 266 274 281 283 272 196 204 217 234 241 248 249 236 240 244 239 239 242 243 242 247 248 252 252 251 249 244 241
220 249 271 250 254 253 270 270 273 272 271 270 270 268 281 269 267 265 265 273 269 214 224 223 228 239 258 268 255 243 240 239 239 242 240 242 247 250 251 249 248 244 239
226 193 253 256 267 277 284 284 292 274 273 271 267 273 285 270 279 275 270 279 275 275 257 214 336 282 280 286 291 272 254 244 245 246 241 239 243 244 244 244 249 250 248
200 225 256 269 294 276 268 274 273 284 292 284 282 285 280 271 267 268 269 281 301 288 283 234 208 240 280 347 351 325 302 277 262 253 247 243 246 245 246 244 249 247 246
215 224 241 261 252 267 283 327 315 303 297 282 280 276 283 285 280 270 264 294 304 292 284 276 255 244 248 298 303 314 320 301 275 270 263 256 249 250 246 241 241 250 253
205 216 247 296 272 270 281 281 283 281 277 287 314 290 292 290 280 266 224 296 281 294 299 288 265 225 236 262 321 348 308 307 302 275 263 256 258 255 252 251 250 249 252
215 252 253 281 286 271 265 283 280 287 276 275 289 293 286 284 283 301 308 305 294 297 289 277 276 272 286 230 213 234 259 265 286 277 286 262 262 258 257 259 254 256 259
227 2 309 288 314 300 288 331 317 317 309 296 274 266 296 271 325 283 299 279 266 254 277 278 262 260 264 284 233 245 250 261 278 285 266 254 265 268 263 262 262 257 249
52 26 16 344 334 335 345 336 6 337 318 301 304 263 257 270 287 292 292 244 262 250 246 264 255 250 225 209 224 237 246 263 250 256 258 263 276 276 271 261 260 263 264
55 54 33 36 9 317 352 337 332 321 312 312 314 304 291 267 259 252 283 292 292 291 211 242 262 229 223 231 247 248 229 239 242 239 235 240 250 268 268 265 264 262 260
95 45 52 32 34 357 8 338 336 314 332 315 316 309 299 305 296 289 282 285 286 291 305 297 248 239 260 226 229 237 235 231 261 261 276 286 290 285 283 279 275 271 268
83 62 43 30 18 5 358 350 331 335 319 326 311 311 304 298 278 303 302 299 297 298 296 288 291 286 272 285 274 37 325 325 279 273 275 287 293 295 293 291 285 282 275
73 55 36 26 11 354 358 345 311 340 334 315 318 317 307 306 291 276 265 289 295 293 286 297 305 302 304 279 253 265 279 244 280 316 309 301 297 293 290 288 285 281 275
108 63 34 8 3 359 354 343 315 311 319 310 308 290 304 310 307 313 310 301 303 301 302 312 309 307 306 319 326 327 304 300 317 302 287 285 282 280 281 281 278 273 268
57 36 12 3 356 349 345 344 337 332 314 315 312 324 304 304 311 298 294 295 294 295 298 306 304 314 324 316 304 305 300 294 276 263 261 258 261 271 275 281 282 277 273
23 13 0 351 344 339 349 338 324 305 330 318 312 304 310 303 300 304 302 290 288 292 298 309 311 299 300 290 284 278 275 278 281 276 255 255 260 268 273 268 269 268 273
12 358 353 347 344 345 344 332 320 320 318 312 311 308 308 314 315 309 302 325 321 311 302 300 300 304 304 301 293 297 286 281 280 282 290 282 275 271 267 269 263 265 265
7 2 355 348 347 344 331 335 340 329 322 319 317 327 324 324 316 328 316 310 310 312 307 305 300 293 290 302 295 287 281 278 265 264 273 275 266 266 265 247 250 251 253
3 1 358 338 343 343 8 3 342 328 319 323 326 313 308 297 303 317 309 304 300 298 295 284 285 292 293 296 291 287 287 278 287 279 266 263 281 276 273 268 266 252 251
1 354 353 1 33 0 25 352 340 317 314 319 327 316 321 337 339 323 310 300 296 293 295 294 288 294 291 297 293 294 290 290 281 273 273 272 276 273 278 268 271 248 238
15 10 19 20 17 42 4 2 346 312 303 316 318 325 324 305 344 343 316 299 284 284 284 285 291 285 288 289 289 288 281 284 289 257 266 276 301 306 311 298 281 267 238
22 15 13 16 60 40 16 356 335 299 318 317 320 325 327 349 7 333 326 308 304 274 245 273 286 287 291 291 294 292 290 279 274 281 291 283 279 283 281 275 282 269 262
19 344 32 29 28 53 21 354 329 321 335 347 336 322 9 349 6 341 328 338 335 327 340 331 310 297 307 305 308 307 299 294 286 286 265 274 288 284 283 280 269 267 262
337 1 50 35 16 43 32 358 341 330 3 332 308 61 25 18 351 338 351 354 343 345 340 310 287 289 319 305 318 320 325 318 312 341 308 270 297 297 287 286 292 276 255
341 19 21 47 44 18 48 5 359 349 352 332 315 143 60 7 343 338 350 1 357 353 341 337 345 349 341 331 336 339 301 300 312 309 346 313 311 315 307 288 296 284 265